User: anonymous   Login
Location: Grovedale
(55.0253°N, 118.8649°W)
Time: 20:21:00
(UTC+00:00)
Language:

Hubble Space Telescope - Orbit

View from above orbital plane
View from above orbital plane
View from above satellite
View from above satellite

Ground track
Ground track

The orbit data is extracted from the following two-line orbital elements,

1 20580U 90037B   22015.64890072  .00001401  00000-0  73270-4 0  9999
2 20580  28.4703 100.7764 0002592 182.8957 295.8710 15.09942563543091
Epoch (UTC): 15 January 2022 15:34:25
Eccentricity: 0.0002592
inclination: 28.4703°
perigee height: 534 km
apogee height: 538 km
right ascension of ascending node: 100.7764°
argument of perigee: 182.8957°
revolutions per day: 15.09942563
mean anomaly at epoch: 295.8710°
orbit number at epoch: 54309

The dashed part of the orbit path shows where the satellite is in the earth's shadow,  

DLR